Find Starlink 5332

NORAD ID: 55285 Int'l Des: 2023-010 Owner: SPXS Country: US Constellation: starlink operational
LEOCIRCULAR

現在のビュー

3D地球を読み込み中...

About Starlink 5332

Starlink 5332 (NORAD 55285) is a starlink constellation satellite (v1.5) launched Jan 19, 2023 by SPXS of US. It operates in LEO, CIRCULAR orbit with a mass of 305.00 kg.

Starlink 5332について

説明を読み込み中...

次回通過

Passes for default location (London). Set your location on the main map for personalized predictions.

高度履歴

Loading altitude history...

軌道要素

1 55285U 23010S 26171.23112296 .00000475 00000-0 47619-4 0 9991
2 55285 69.9995 105.8342 0002691 270.4098 89.6753 14.98331251190000
Epoch: Jun 20, 2026 • Age: 36 hours

現在のステータス

高度 576.2 km
速度 7.58 km/s
衛星直下点 29.80°N, 98.35°E
打ち上げ日 Jan 19, 2023
運用期間 3.4 years
タイプ internet

技術仕様

分類 Payload
質量 305.00 kg
乾燥質量 290.00 kg
総質量 305.00 kg
長さ 0.20 m
直径 2.80 m
スパン 9.00 m
形状 Box + pan
製造者 SPXS
バスタイプ Starlink
フェーズステータス In Orbit
所有者/国 SPXS/US

Most Searched